Terminal Aerodrome Forecast
Issued by NWS Mt. Holly, NJ

Home | Current Version | Previous Version | Text Only | Print | Product List | Glossary On
Versions: 1 2 3 4 5 6 7 8 9 10 11 12 13 14 15 16 17 18 19 20 21 22 23 24 25 26 27 28
000
FTUS41 KPHI 011720
TAFPHL
TAF
KPHL 011720Z 0118/0224 18008KT 1SM -SN BKN012 OVC025
     FM012000 18005KT 2SM -FZRAPL OVC006
     FM020600 24005KT 4SM BR OVC006
     FM021000 31010KT P6SM OVC040
     FM021400 30014G24KT P6SM SCT040 BKN250
     FM022300 30010KT P6SM SCT250=

USA.gov is the U.S. government's official web portal to all federal, state and local government web resources and services.